Regional Weather Roundup
Issued by NWS

Home | Current Version | Previous Version | Text Only | Print | Product List | Glossary Off
Versions: 1 2 3 4 5 6 7 8 9 10 11 12 13 14 15 16 17 18 19 20 21 22 23 24 25 26 27 28 29 30 31 32 33 34 35 36 37 38 39 40 41 42 43 44 45 46 47 48 49 50

000
ASUS43 KMPX 020310
RWRMN
WEATHER ROUNDUP FOR MINNESOTA
NATIONAL WEATHER SERVICE TWIN CITIES/CHANHASSEN MN
1000 PM CDT MON SEP 01 2014


NOTE: "FAIR" INDICATES FEW OR NO CLOUDS BELOW 12,000 FEET WITH NO
SIGNIFICANT WEATHER AND/OR OBSTRUCTIONS TO VISIBILITY. N/A MEANS
CURRENT SKY AND/OR WEATHER CONDITIONS ARE NOT AVAILABLE.

MNZ060>063-068>070-020400-
   Twin Cities Metro

CITY           SKY/WX    TMP DP  RH WIND       PRES   REMARKS
TWIN CITIES    PTCLDY    69  57  65 SW5       29.81R
ST PAUL        CLEAR     66  59  78 CALM      29.80R
CRYSTAL        CLEAR     65  57  75 CALM      29.79R
BLAINE         PTCLDY    64  59  82 CALM      29.80R
LAKEVILLE      CLEAR     63  57  82 SW6       29.81S
EDEN PRAIRIE   CLEAR     64  59  83 SW5       29.80R
SOUTH ST PAUL  CLEAR     66  57  71 SW3       29.80R
LAKE ELMO      FAIR      61  59  94 CALM      29.82R
$$
MNZ001>005-007-008-013>017-022>024-027-028-020400-
   Northwest Minnesota

CITY           SKY/WX    TMP DP  RH WIND       PRES   REMARKS
BEMIDJI        PTCLDY    56  53  89 SW7       29.78R
HALLOCK        CLEAR     57  54  88 SW9       29.73R
ROSEAU         CLEAR     55  52  88 S7        29.73R
WARROAD        CLEAR     57  54  88 SW7       29.73R
THIEF RVR FALL CLEAR     55  52  88 S5        29.77R
CROOKSTON      MOCLDY    57  55  94 SW6       29.78R
FOSSTON        CLEAR     52  50  93 S3        29.79R
DETROIT LAKES  PTCLDY    55  54  94 S3        29.83R
MOORHEAD       CLEAR     61  61 100 CALM      29.81R
PARK RAPIDS    CLOUDY    55  54  96 CALM      29.80R
MAHNOMEN       FAIR      54  53  98 S7        29.80R
$$
MNZ006-009>011-018-025>026-020400-
   North Central Minnesota

CITY           SKY/WX    TMP DP  RH WIND       PRES   REMARKS
BAUDETTE       CLEAR     54  51  90 CALM      29.72R
FLAG ISLAND    CLEAR     59  54  82 SW12      29.69R
INTL FALLS     PTCLDY    51  50  96 SW3       29.71S
WASKISH        PTCLDY    54  52  94 CALM      29.75R
BIG FORK       MOCLDY    55  52  88 CALM      29.76R
LONGVILLE      CLOUDY    55  54  94 CALM      29.78R
GRAND RAPIDS   CLOUDY    63  52  67 W6        29.77R
CRANE LAKE     MOCLDY    57  52  82 SW3       29.74R
ORR            PTCLDY    57  52  82 CALM      29.72R
COOK           PTCLDY    54  52  94 W5        29.74R
WALKER         FAIR      54  52  94 W5        29.78R
$$
MNZ012-019>021-037-020400-
   Northeast Minnesota

CITY           SKY/WX    TMP DP  RH WIND       PRES   REMARKS
DULUTH         PTCLDY    56  50  80 W7        29.77R
ELY            CLEAR     52  48  87 SW3       29.73S
HIBBING        MOCLDY    54  50  86 CALM      29.75R
EVELETH        PTCLDY    54  52  94 CALM      29.76R
DULUTH HARBOR  PTCLDY    63  55  77 SW6       29.76R
TWO HARBORS    CLEAR     55  50  82 W3        29.73R
SILVER BAY     CLEAR     55  54  94 CALM      29.72R
GRAND MARAIS     N/A     58  55  90 CALM      29.68R
G MARAIS ARPRT CLEAR     55  50  82 W5        29.72R
$$
MNZ029>031-032-039>041-046>048-054>057-064-020400-
   West Central Minnesota

CITY           SKY/WX    TMP DP  RH WIND       PRES   REMARKS
FERGUS FALLS   CLEAR     61  52  72 CALM      29.82R
WHEATON        PTCLDY    61  55  82 SW5       29.84R
MORRIS         MOCLDY    64  57  77 W7        29.82R
ALEXANDRIA     PTCLDY    61  56  83 NE6       29.84R
ELBOW LAKE     FAIR      62  55  80 NE5       29.82R
WADENA         MOCLDY    54  52  94 W3        29.80R
GLENWOOD       PTCLDY    64  54  68 W8        29.83R
APPLETON       LGT RAIN  64  55  72 NW9       29.82F
BENSON         LGT RAIN  63  55  77 W14       29.82R
ORTONVILLE     MOCLDY    63  55  77 W7        29.83S
MADISON        MOCLDY    66  55  68 W7        29.83R
WILLMAR        FAIR      63  57  82 W6        29.83R
$$
MNZ033>034-036-042>043-049>051-058-059-020400-
   Central Minnesota

CITY           SKY/WX    TMP DP  RH WIND       PRES   REMARKS
ST CLOUD       CLEAR     64  59  83 CALM      29.80R
SAUK CENTRE    FAIR      57  55  94 CALM      29.82R
PAYNESVILLE    CLOUDY    59  58  96 CALM      29.82R
AITKIN         MIX PCPN  63  54  72 SW6       29.76F
PINE RIVER     CLOUDY    55  55 100 SW5       29.82R
BRAINERD       LGT RAIN  55  54  96 S10       29.79F
STAPLES        MOCLDY    55  54  94 S7        29.79F THUNDER
LONG PRAIRIE   FAIR      59  50  72 N5        29.83R
LITTLE FALLS   MOCLDY    61  50  67 NW3       29.83R
LITCHFIELD     PTCLDY    64  61  88 CALM      29.82R
BUFFALO        CLEAR     65  58  78 CALM      29.81R
MAPLE LAKE     CLEAR     64  60  85 CALM      29.82R
$$
MNZ037-044-045-052-053-020400-
   East Central Minnesota

CITY           SKY/WX    TMP DP  RH WIND       PRES   REMARKS
PRINCETON      PTCLDY    63  57  82 SW2       29.80R
MORA           PTCLDY    55  55 100 CALM      29.81R
CAMBRIDGE      PTCLDY    64  54  68 CALM      29.78R
RUSH CITY      MOCLDY    59  57  93 CALM      29.80R
MOOSE LAKE     PTCLDY    55  54  94 CALM      29.76S
HINCKLEY       FAIR      57  57 100 CALM      29.79R
CLOQUET        PTCLDY    57  50  77 W5        29.77R
MCGREGOR       MOCLDY    63  54  72 SW3       29.77S
$$
MNZ071>073-080-081-089-090-097-098-020400-
   Southwest Minnesota

CITY           SKY/WX    TMP DP  RH WIND       PRES   REMARKS
MONTEVIDEO     MOCLDY    66  57  72 NW8       29.84R
GRANITE FALLS  MOCLDY    62  58  88 W6        29.85R
CANBY          CLOUDY    64  51  64 NW7       29.85R
MARSHALL       MOCLDY    64  55  72 W7        29.83R
REDWOOD FALLS  PTCLDY    69  57  65 W9        29.82R
OLIVIA         PTCLDY    64  57  77 W6        29.83R
PIPESTONE      PTCLDY    63  55  77 CALM      29.87F
WINDOM         CLEAR     63  57  82 CALM      29.86R
WORTHINGTON    CLEAR     61  55  82 W5        29.88S
JACKSON        CLEAR     59  55  88 CALM      29.87S
TRACY          PTCLDY    64  58  80 W5        29.85R
SLAYTON        PTCLDY    60  56  85 CALM      29.88R
$$
MNZ065>067-074>077-082>085-091>093-020400-
   South Central Minnesota

CITY           SKY/WX    TMP DP  RH WIND       PRES   REMARKS
MANKATO        PTCLDY    64  55  72 SW5       29.83R
NEW ULM        PTCLDY    63  63 100 SW5       29.83R
ST JAMES       CLEAR     64  61  88 S5        29.85S
FAIRMONT       CLEAR     63  55  77 SW7       29.85S
GLENCOE        PTCLDY    65  58  78 SW5       29.81R
FARIBAULT      CLEAR     66  57  72 CALM      29.84R
OWATONNA       CLEAR     63  57  82 SW5       29.84S
WASECA         CLEAR     59  54  82 CALM      29.85S
ALBERT LEA     CLEAR     63  61  94 CALM      29.84F
$$
MNZ078>079-086>088-094>096-020400-
   Southeast Minnesota

CITY           SKY/WX    TMP DP  RH WIND       PRES   REMARKS
ROCHESTER      CLEAR     61  56  83 W7        29.84F
RED WING       CLEAR     63  59  88 N3        29.80R
STANTON        CLEAR     62  57  85 S3        29.81R
DODGE CENTER   CLEAR     61  57  88 SW5       29.84F
WINONA         CLEAR     63  61  94 N3        29.81F
AUSTIN         PTCLDY    63  59  88 CALM      29.84F
PRESTON        PTCLDY    61  60  96 CALM      29.85S
$$
ABBREVIATIONS USED IN REMARKS
   TC - TEMPERATURES IN CELSIUS
  WCI - WIND CHILL INDEX
   HX - HEAT INDEX
  VSB - VISIBILITY
$$


USA.gov is the U.S. government's official web portal to all federal, state and local government web resources and services.